RYR3CE LPPR-EGCC

Flight info

Callsign RYR3CE
Flight time N/A
Altitude 34000
Route TURON9E TURON P600 ASDEB DCT KORUL DCT KOLEK DCT EBOMO DCT
Aircraft B738/M-V/N

Departure

Time 2026-05-07 22:40
Airport Francisco de Sá Carneiro Airport (LPPR)

Arrival

Time N/A
Airport Manchester Airport (EGCC)
Time Latitude Longitude Altitude Speed Heading
2026-05-07 22:05 41.23442 -8.67260 241 ft 0 kts 59°
2026-05-07 22:30 41.23441 -8.67261 241 ft 1 kts 59°
2026-05-07 22:31 41.23430 -8.67289 241 ft 4 kts 68°
2026-05-07 22:31 41.23422 -8.67323 239 ft 4 kts 83°
2026-05-07 22:31 41.23423 -8.67357 237 ft 4 kts 117°
2026-05-07 22:31 41.23436 -8.67375 236 ft 1 kts 168°
2026-05-07 22:35 41.23435 -8.67375 236 ft 1 kts 168°
2026-05-07 22:35 41.23408 -8.67368 236 ft 8 kts 171°
2026-05-07 22:35 41.23345 -8.67399 234 ft 11 kts 234°
2026-05-07 22:35 41.23323 -8.67495 235 ft 7 kts 258°
2026-05-07 22:36 41.23315 -8.67544 258 ft 5 kts 258°
2026-05-07 22:36 41.23308 -8.67592 237 ft 5 kts 259°
2026-05-07 22:36 41.23307 -8.67597 237 ft 0 kts 259°
2026-05-07 22:38 41.23306 -8.67608 236 ft 3 kts 259°
2026-05-07 22:38 41.23298 -8.67656 237 ft 7 kts 258°
2026-05-07 22:38 41.23301 -8.67719 239 ft 7 kts 311°
2026-05-07 22:39 41.23347 -8.67743 238 ft 7 kts 346°
2026-05-07 22:39 41.23469 -8.67775 234 ft 46 kts 348°
2026-05-07 22:39 41.24047 -8.67926 216 ft 122 kts 349°
2026-05-07 22:39 41.25077 -8.68195 297 ft 172 kts 348°
2026-05-07 22:40 41.26225 -8.68523 1221 ft 162 kts 349°
2026-05-07 22:40 41.27274 -8.68814 2282 ft 149 kts 348°
2026-05-07 22:40 41.28340 -8.69123 2779 ft 169 kts 349°
2026-05-07 22:40 41.29561 -8.69434 3256 ft 189 kts 350°
2026-05-07 22:41 41.30951 -8.69771 3546 ft 212 kts 349°
2026-05-07 22:41 41.32446 -8.70142 3922 ft 228 kts 349°
2026-05-07 22:41 41.34079 -8.70558 4161 ft 251 kts 349°
2026-05-07 22:41 41.35584 -8.70949 4517 ft 266 kts 349°
2026-05-07 22:42 41.37168 -8.71366 5166 ft 272 kts 348°
2026-05-07 22:43 41.39053 -8.71866 5904 ft 279 kts 348°
2026-05-07 22:43 41.40965 -8.72375 6739 ft 282 kts 348°
2026-05-07 22:43 41.42904 -8.72679 7437 ft 288 kts
2026-05-07 22:43 41.44893 -8.72248 8208 ft 292 kts 12°
2026-05-07 22:44 41.46902 -8.71705 8946 ft 297 kts 12°
2026-05-07 22:44 41.48945 -8.71151 9728 ft 302 kts 12°
2026-05-07 22:44 41.51027 -8.70598 10333 ft 312 kts 12°
2026-05-07 22:44 41.53242 -8.70022 10524 ft 336 kts 11°
2026-05-07 22:45 41.55614 -8.69416 10744 ft 357 kts 11°
2026-05-07 22:45 41.58093 -8.68788 11286 ft 366 kts 11°
2026-05-07 22:45 41.60607 -8.68152 12040 ft 368 kts 11°
2026-05-07 22:45 41.63129 -8.67512 12861 ft 369 kts 11°
2026-05-07 22:46 41.65664 -8.66866 13662 ft 372 kts 11°
2026-05-07 22:46 41.68224 -8.66213 14388 ft 376 kts 11°
2026-05-07 22:46 41.70802 -8.65554 15071 ft 380 kts 11°
2026-05-07 22:46 41.73413 -8.64886 15787 ft 384 kts 11°
2026-05-07 22:47 41.76051 -8.64211 16491 ft 388 kts 11°
2026-05-07 22:47 41.78713 -8.63529 17182 ft 391 kts 11°
2026-05-07 22:47 41.81409 -8.62838 17880 ft 396 kts 11°
2026-05-07 22:47 41.84090 -8.62150 18500 ft 400 kts 11°
2026-05-07 22:48 41.86834 -8.61446 19085 ft 404 kts 11°
2026-05-07 22:48 41.89608 -8.60733 19671 ft 407 kts 11°
2026-05-07 22:48 41.92404 -8.60014 20249 ft 411 kts 11°
2026-05-07 22:48 41.95223 -8.59288 20809 ft 415 kts 11°
2026-05-07 22:49 41.98070 -8.58554 21364 ft 418 kts 11°
2026-05-07 22:49 42.00944 -8.57813 21924 ft 422 kts 11°
2026-05-07 22:49 42.03839 -8.57066 22453 ft 425 kts 11°
2026-05-07 22:49 42.06759 -8.56314 22989 ft 429 kts 10°
2026-05-07 22:50 42.09719 -8.55700 23499 ft 432 kts
2026-05-07 22:50 42.12715 -8.55223 23951 ft 435 kts
2026-05-07 22:50 42.15739 -8.54792 24402 ft 437 kts
2026-05-07 22:50 42.18773 -8.54361 24851 ft 440 kts
2026-05-07 22:51 42.21830 -8.53911 25256 ft 443 kts
2026-05-07 22:51 42.24898 -8.53443 25672 ft 445 kts
2026-05-07 22:51 42.27990 -8.52960 25935 ft 451 kts
2026-05-07 22:51 42.31129 -8.52463 25863 ft 454 kts
2026-05-07 22:52 42.34263 -8.51964 25216 ft 453 kts
2026-05-07 22:52 42.37389 -8.51466 24563 ft 451 kts
2026-05-07 22:52 42.39448 -8.51137 24132 ft 449 kts
2026-05-07 22:52 42.42541 -8.50645 23445 ft 447 kts